| time (UTC) | temp C | wind direction | speed KPH | gust KPH | rain 1hr cm | rain 24hr cm | rain mn cm | humidity % | barometer mb |
| 20260503034039 | 11 | 143 | 0.0 | 1.6 | 0.00 | 0.00 | 0.00 | 68 | 1014.5 |
| 20260503033024 | 10 | 143 | 0.0 | 0.0 | 0.00 | 0.00 | 0.00 | 69 | 1014.4 |
| 20260503032025 | 10 | 142 | 0.0 | 1.6 | 0.00 | 0.00 | 0.00 | 69 | 1014.4 |
| 20260503031023 | 10 | 142 | 0.0 | 1.6 | 0.00 | 0.00 | 0.00 | 70 | 1014.5 |
| 20260503030023 | 10 | 143 | 0.0 | 0.0 | 0.00 | 0.00 | 0.00 | 69 | 1014.6 |
| 20260503025023 | 11 | 143 | 0.0 | 3.2 | 0.00 | 0.00 | 0.00 | 67 | 1014.5 |
| 20260503024026 | 11 | 143 | 0.0 | 1.6 | 0.00 | 0.00 | 0.00 | 67 | 1014.5 |
| 20260503023024 | 11 | 143 | 0.0 | 1.6 | 0.00 | 0.00 | 0.00 | 67 | 1014.5 |
| 20260503022026 | 11 | 143 | 0.0 | 1.6 | 0.00 | 0.00 | 0.00 | 67 | 1014.6 |
| 20260503021026 | 10 | 143 | 0.0 | 1.6 | 0.00 | 0.00 | 0.00 | 69 | 1014.6 |
| 20260503020030 | 10 | 143 | 0.0 | 1.6 | 0.00 | 0.00 | 0.00 | 70 | 1014.6 |
| 20260503015031 | 10 | 143 | 0.0 | 0.0 | 0.00 | 0.00 | 0.00 | 70 | 1014.7 |
| 20260503014029 | 10 | 143 | 0.0 | 0.0 | 0.00 | 0.00 | 0.00 | 72 | 1014.8 |
| 20260503013029 | 9 | 143 | 0.0 | 0.0 | 0.00 | 0.00 | 0.00 | 73 | 1014.7 |
| 20260503012036 | 9 | 143 | 0.0 | 0.0 | 0.00 | 0.00 | 0.00 | 73 | 1014.8 |
| 20260503011034 | 9 | 143 | 0.0 | 0.0 | 0.00 | 0.00 | 0.00 | 74 | 1014.8 |
| 20260503005036 | 9 | 143 | 0.0 | 0.0 | 0.00 | 0.00 | 0.00 | 73 | 1014.9 |
| 20260503004036 | 9 | 143 | 0.0 | 0.0 | 0.00 | 0.00 | 0.00 | 73 | 1014.9 |
| 20260503003040 | 10 | 143 | 0.0 | 0.0 | 0.00 | 0.00 | 0.00 | 73 | 1015.0 |
| 20260503002023 | 10 | 143 | 0.0 | 0.0 | 0.00 | 0.00 | 0.00 | 73 | 1015.1 |
| 20260503001022 | 10 | 143 | 0.0 | 0.0 | 0.00 | 0.00 | 0.00 | 73 | 1015.0 |
| 20260503000041 | 9 | 143 | 0.0 | 0.0 | 0.00 | 0.00 | 0.00 | 72 | 1015.1 |
| 20260502235025 | 9 | 143 | 0.0 | 0.0 | 0.00 | 0.00 | 0.00 | 73 | 1015.2 |
| 20260502234025 | 9 | 143 | 0.0 | 0.0 | 0.00 | 0.00 | 0.00 | 72 | 1015.1 |
| 20260502233026 | 10 | 143 | 0.0 | 0.0 | 0.00 | 0.00 | 0.00 | 70 | 1015.2 |
| 20260502232026 | 10 | 143 | 0.0 | 0.0 | 0.00 | 0.00 | 0.00 | 71 | 1015.3 |
| 20260502231031 | 10 | 143 | 0.0 | 0.0 | 0.00 | 0.00 | 0.00 | 70 | 1015.3 |
| 20260502230031 | 10 | 143 | 0.0 | 0.0 | 0.00 | 0.00 | 0.00 | 70 | 1015.4 |
| 20260502225030 | 10 | 143 | 0.0 | 0.0 | 0.00 | 0.00 | 0.00 | 67 | 1015.5 |
| 20260502224029 | 11 | 143 | 0.0 | 0.0 | 0.00 | 0.00 | 0.00 | 67 | 1015.5 |
| 20260502223033 | 11 | 143 | 0.0 | 0.0 | 0.00 | 0.00 | 0.00 | 65 | 1015.5 |
| 20260502222034 | 11 | 143 | 0.0 | 0.0 | 0.00 | 0.00 | 0.00 | 65 | 1015.5 |
| 20260502221033 | 11 | 143 | 0.0 | 0.0 | 0.00 | 0.00 | 0.00 | 64 | 1015.5 |
| 20260502220034 | 11 | 143 | 0.0 | 0.0 | 0.00 | 0.00 | 0.00 | 63 | 1015.5 |
| 20260502215036 | 12 | 143 | 0.0 | 0.0 | 0.00 | 0.00 | 0.00 | 63 | 1015.5 |
| 20260502214035 | 12 | 143 | 0.0 | 0.0 | 0.00 | 0.00 | 0.00 | 62 | 1015.5 |
| 20260502213033 | 12 | 143 | 0.0 | 0.0 | 0.00 | 0.00 | 0.00 | 60 | 1015.6 |
| 20260502212035 | 13 | 143 | 0.0 | 0.0 | 0.00 | 0.00 | 0.00 | 60 | 1015.6 |
| 20260502211033 | 13 | 143 | 0.0 | 0.0 | 0.00 | 0.00 | 0.00 | 58 | 1015.7 |
| 20260502210037 | 13 | 143 | 0.0 | 0.0 | 0.00 | 0.00 | 0.00 | 57 | 1015.6 |
| 20260502205019 | 14 | 143 | 0.0 | 0.0 | 0.00 | 0.00 | 0.00 | 56 | 1015.8 |
| 20260502204018 | 15 | 143 | 0.0 | 0.0 | 0.00 | 0.00 | 0.00 | 54 | 1015.8 |
| 20260502203019 | 15 | 143 | 0.0 | 0.0 | 0.00 | 0.00 | 0.00 | 54 | 1015.8 |
| 20260502202024 | 15 | 143 | 0.0 | 0.0 | 0.00 | 0.00 | 0.00 | 53 | 1015.9 |
| 20260502201022 | 16 | 143 | 0.0 | 0.0 | 0.00 | 0.00 | 0.00 | 51 | 1015.9 |
| 20260502200022 | 17 | 143 | 0.0 | 0.0 | 0.00 | 0.00 | 0.00 | 50 | 1015.9 |
| 20260502195024 | 17 | 143 | 0.0 | 1.6 | 0.00 | 0.00 | 0.00 | 48 | 1015.9 |
| 20260502194026 | 17 | 143 | 0.0 | 1.6 | 0.00 | 0.00 | 0.00 | 48 | 1016.0 |
| 20260502193027 | 17 | 143 | 0.0 | 1.6 | 0.00 | 0.00 | 0.00 | 49 | 1015.9 |
| 20260502192028 | 17 | 143 | 0.0 | 1.6 | 0.00 | 0.00 | 0.00 | 51 | 1015.9 |
| 20260502191028 | 17 | 143 | 0.0 | 1.6 | 0.00 | 0.00 | 0.00 | 50 | 1015.9 |
| 20260502190028 | 17 | 143 | 0.0 | 1.6 | 0.00 | 0.00 | 0.00 | 48 | 1016.0 |
| 20260502185033 | 18 | 143 | 0.0 | 0.0 | 0.00 | 0.00 | 0.00 | 47 | 1015.9 |
| 20260502184032 | 19 | 143 | 0.0 | 0.0 | 0.00 | 0.00 | 0.00 | 45 | 1015.8 |
| 20260502183032 | 20 | 143 | 0.0 | 0.0 | 0.00 | 0.00 | 0.00 | 44 | 1015.8 |
| 20260502182032 | 20 | 143 | 0.0 | 0.0 | 0.00 | 0.00 | 0.00 | 42 | 1015.8 |
| 20260502181035 | 21 | 143 | 0.0 | 0.0 | 0.00 | 0.00 | 0.00 | 39 | 1015.9 |
| 20260502164021 | 25 | 142 | 1.6 | 9.7 | 0.00 | 0.00 | 0.00 | 29 | 1016.1 |
| 20260502163022 | 25 | 142 | 3.2 | 8.0 | 0.00 | 0.00 | 0.00 | 28 | 1016.2 |
| 20260502162023 | 25 | 142 | 4.8 | 11.3 | 0.00 | 0.00 | 0.00 | 28 | 1016.3 |
| 20260502161021 | 26 | 142 | 1.6 | 9.7 | 0.00 | 0.00 | 0.00 | 28 | 1016.3 |
| 20260502152033 | 26 | 142 | 6.4 | 11.3 | 0.00 | 0.00 | 0.00 | 27 | 1017.0 |
| 20260502151032 | 26 | 142 | 3.2 | 20.9 | 0.00 | 0.00 | 0.00 | 27 | 1017.1 |
| 20260502123026 | 26 | 145 | 3.2 | 9.7 | 0.00 | 0.00 | 0.00 | 26 | 1018.8 |
| 20260502122026 | 26 | 145 | 1.6 | 9.7 | 0.00 | 0.00 | 0.00 | 26 | 1018.9 |
| 20260502121026 | 26 | 145 | 1.6 | 8.0 | 0.00 | 0.00 | 0.00 | 26 | 1019.1 |
| 20260502115029 | 26 | 145 | 3.2 | 16.1 | 0.00 | 0.00 | 0.00 | 27 | 1019.3 |
| 20260502114029 | 26 | 145 | 1.6 | 14.5 | 0.00 | 0.00 | 0.00 | 26 | 1019.4 |
| 20260502113025 | 26 | 144 | 3.2 | 9.7 | 0.00 | 0.00 | 0.00 | 26 | 1019.5 |
| 20260502112026 | 26 | 144 | 0.0 | 12.9 | 0.00 | 0.00 | 0.00 | 28 | 1019.7 |
| 20260502111025 | 26 | 144 | 4.8 | 9.7 | 0.00 | 0.00 | 0.00 | 27 | 1019.8 |
| 20260502110030 | 26 | 144 | 1.6 | 12.9 | 0.00 | 0.00 | 0.00 | 28 | 1019.8 |
| 20260502105029 | 27 | 144 | 1.6 | 4.8 | 0.00 | 0.00 | 0.00 | 27 | 1019.9 |
| 20260502104027 | 25 | 144 | 0.0 | 6.4 | 0.00 | 0.00 | 0.00 | 30 | 1020.2 |
| 20260502103025 | 24 | 144 | 4.8 | 9.7 | 0.00 | 0.00 | 0.00 | 29 | 1020.4 |
| 20260502102029 | 24 | 144 | 1.6 | 12.9 | 0.00 | 0.00 | 0.00 | 30 | 1020.4 |
| 20260502101028 | 23 | 144 | 1.6 | 9.7 | 0.00 | 0.00 | 0.00 | 31 | 1020.5 |
| 20260502091032 | 22 | 142 | 1.6 | 11.3 | 0.00 | 0.00 | 0.00 | 34 | 1021.1 |
| 20260502071030 | 18 | 142 | 0.0 | 1.6 | 0.00 | 0.00 | 0.00 | 51 | 1021.5 |
| 20260502070031 | 17 | 142 | 0.0 | 3.2 | 0.00 | 0.00 | 0.00 | 52 | 1021.5 |
| 20260502065036 | 16 | 142 | 0.0 | 1.6 | 0.00 | 0.00 | 0.00 | 56 | 1021.6 |
| 20260502064035 | 15 | 142 | 0.0 | 3.2 | 0.00 | 0.00 | 0.00 | 60 | 1021.6 |
| 20260502063035 | 14 | 142 | 0.0 | 3.2 | 0.00 | 0.00 | 0.00 | 63 | 1021.6 |
| 20260502062035 | 13 | 142 | 0.0 | 3.2 | 0.00 | 0.00 | 0.00 | 65 | 1021.6 |
| 20260502061033 | 12 | 142 | 0.0 | 3.2 | 0.00 | 0.00 | 0.00 | 68 | 1021.6 |
| 20260502060018 | 11 | 142 | 0.0 | 3.2 | 0.00 | 0.00 | 0.00 | 71 | 1021.6 |
| 20260502055019 | 10 | 142 | 0.0 | 1.6 | 0.00 | 0.00 | 0.00 | 72 | 1021.6 |
| 20260502054037 | 10 | 142 | 0.0 | 1.6 | 0.00 | 0.00 | 0.00 | 73 | 1021.6 |
| 20260502053017 | 9 | 142 | 0.0 | 1.6 | 0.00 | 0.00 | 0.00 | 75 | 1021.6 |
| 20260502052022 | 8 | 142 | 0.0 | 1.6 | 0.00 | 0.00 | 0.00 | 77 | 1021.5 |
| 20260502051023 | 8 | 142 | 0.0 | 1.6 | 0.00 | 0.00 | 0.00 | 81 | 1021.5 |
| 20260502050024 | 7 | 142 | 0.0 | 0.0 | 0.00 | 0.00 | 0.00 | 86 | 1021.5 |
| 20260502045025 | 6 | 142 | 0.0 | 0.0 | 0.00 | 0.00 | 0.00 | 88 | 1021.6 |
| 20260502044028 | 6 | 142 | 0.0 | 0.0 | 0.00 | 0.00 | 0.00 | 89 | 1021.5 |
| 20260502043029 | 5 | 142 | 0.0 | 0.0 | 0.00 | 0.00 | 0.00 | 89 | 1021.5 |
| 20260502042028 | 5 | 143 | 0.0 | 0.0 | 0.00 | 0.00 | 0.00 | 89 | 1021.4 |
| 20260502041028 | 4 | 143 | 0.0 | 0.0 | 0.00 | 0.00 | 0.00 | 89 | 1021.4 |
| 20260502040032 | 3 | 143 | 0.0 | 0.0 | 0.00 | 0.00 | 0.00 | 89 | 1021.5 |
| 20260502035034 | 3 | 143 | 0.0 | 0.0 | 0.00 | 0.00 | 0.00 | 89 | 1021.5 |